Belmar-Farmingdale, NJ

6:32 PM EST on November 21, 2019 (GMT -0500)
Allaire

Weather History for KBLM - October, 2019

Change the Weather History Date:

Wednesday, October 23, 2019

  Actual Average Record
Temperature  
Mean Temperature 58 °F -  
Max Temperature 66 °F 58 °F 73 °F (2017)
Min Temperature 46 °F 43 °F 30 °F (1997)
Degree Days  
Heating Degree Days 7    
Growing Degree Days 8 (Base 50)    
Moisture  
Dew Point 49 °F    
Average Humidity 75    
Maximum Humidity 100    
Minimum Humidity 35    
Precipitation  
Precipitation 0.06 in - - ()
Sea Level Pressure  
Sea Level Pressure 29.93 in    
Wind  
Wind Speed 8 mph ()    
Max Wind Speed 22 mph    
Max Gust Speed 30 mph    
Visibility 9.8 miles    
Events Rain    
Averages and records for this station are not official NWS values.
T = Trace of Precipitation, MM = Missing Value Source: Averaged Metar Reports

Daily Weather History Graph

Daily Weather History Graph

Search for Another Location

Airport or City:

Astronomy

Oct. 23, 2019 Rise Set
Actual Time 7:15 AM EDT 6:05 PM EDT
Civil Twilight 6:47 AM EDT 6:33 PM EDT
Nautical Twilight 6:16 AM EDT 7:04 PM EDT
Astronomical Twilight 5:44 AM EDT 7:36 PM EDT
Moon 1:30 AM EDT (10/23) 3:54 PM EDT (10/23)
Length of Visible Light 11h 45m
Length of Day
10h 50m
Waning Crescent, 27% of the Moon is Illuminated
Oct 23
Waning Crescent
Oct 27
New
Nov 4
First Quarter
Nov 12
Full
Nov 19
Last Quarter

Hourly Weather History & Observations

Time (EDT) Temp. Dew Point Humidity Pressure Visibility Wind Dir Wind Speed Gust Speed Precip Events Conditions
12:46 AM 64.4 °F 62.6 °F 94% 29.78 in 5.0 mi SSW 5.8 mph - 0.05 in Rain Light Rain
12:56 AM 64.0 °F 63.0 °F 96% 29.78 in 10.0 mi WSW 5.8 mph - 0.05 in   Overcast
1:56 AM 62.1 °F 60.1 °F 93% 29.78 in 10.0 mi West 8.1 mph - 0.01 in   Overcast
2:56 AM 60.1 °F 60.1 °F 100% 29.79 in 10.0 mi West 10.4 mph - N/A   Overcast
3:05 AM 60.8 °F 59.0 °F 94% 29.79 in 10.0 mi West 9.2 mph - N/A   Overcast
3:13 AM 60.8 °F 59.0 °F 94% 29.79 in 10.0 mi WNW 10.4 mph - N/A   Overcast
3:33 AM 60.8 °F 59.0 °F 94% 29.79 in 10.0 mi West 9.2 mph - N/A   Overcast
3:56 AM 59.0 °F 57.9 °F 96% 29.79 in 10.0 mi WNW 6.9 mph - N/A   Overcast
4:20 AM 57.2 °F 57.2 °F 100% 29.79 in 10.0 mi West 9.2 mph - N/A   Scattered Clouds
4:56 AM 57.9 °F 57.0 °F 97% 29.82 in 10.0 mi West 9.2 mph - N/A   Clear
5:56 AM 55.9 °F 55.0 °F 97% 29.84 in 10.0 mi WNW 9.2 mph - N/A   Clear
6:56 AM 55.0 °F 54.0 °F 96% 29.88 in 10.0 mi West 10.4 mph - N/A   Clear
7:56 AM 54.0 °F 53.1 °F 97% 29.91 in 10.0 mi West 11.5 mph - N/A   Clear
8:56 AM 57.0 °F 53.1 °F 87% 29.94 in 10.0 mi West 9.2 mph - N/A   Clear
9:56 AM 59.0 °F 52.0 °F 78% 29.97 in 10.0 mi West 15.0 mph 20.7 mph N/A   Clear
10:56 AM 63.0 °F 46.9 °F 56% 29.98 in 10.0 mi WNW 9.2 mph 20.7 mph N/A   Clear
11:56 AM 64.0 °F 42.1 °F 45% 29.98 in 10.0 mi WNW 16.1 mph 21.9 mph N/A   Clear
12:56 PM 64.0 °F 37.9 °F 38% 29.98 in 10.0 mi West 21.9 mph 29.9 mph N/A   Clear
1:56 PM 66.0 °F 39.0 °F 37% 29.97 in 10.0 mi WNW 16.1 mph 23.0 mph N/A   Clear
2:56 PM 64.9 °F 37.0 °F 36% 29.99 in 10.0 mi West 15.0 mph 26.5 mph N/A   Clear
3:56 PM 64.9 °F 37.0 °F 36% 30.01 in 10.0 mi West 13.8 mph 20.7 mph N/A   Clear
4:56 PM 64.0 °F 36.0 °F 35% 30.02 in 10.0 mi West 13.8 mph - N/A   Clear
5:56 PM 60.1 °F 37.0 °F 42% 30.06 in 10.0 mi WSW 6.9 mph - N/A   Clear
8:56 PM 53.1 °F 39.9 °F 61% 30.15 in 10.0 mi SW 5.8 mph - N/A   Clear
9:56 PM 50.0 °F 41.0 °F 71% 30.18 in 10.0 mi WSW 4.6 mph - N/A   Clear
10:56 PM 50.0 °F 39.9 °F 68% 30.19 in 10.0 mi WSW 5.8 mph - N/A   Clear
11:56 PM 46.9 °F 39.9 °F 77% 30.20 in 10.0 mi WSW 3.5 mph - N/A   Clear